Home   Weather   Annapolis   Past weeks
Flag for USA

Past Weather in Annapolis, Maryland, USA — Yesterday and Last 2 Weeks

Now
86 °F

Sunny.


Feels Like: 89 °F
Forecast: 87 / 71 °F
Wind: 8 mph from Southeast

Location: Annapolis - United States Naval Academy

Current Time: Jul 15, 2019 at 6:12:39 pm

Latest Report: Jul 15, 2019 at 4:54 pm


Visibility: 10 mi

Pressure: 30.05 "Hg

Humidity: 53%

Dew Point: 67 °F

Location of AnnapolisLocation

Past Weather in Annapolis — Graph

°F

Annapolis Temperature Yesterday

Maximum temperature yesterday: 95 °F (at 2:54 pm)
Minimum temperature yesterday: 76 °F (at 3:54 am)
Average temperature yesterday: 87 °F

High & Low Weather Summary for the Past Weeks

 TemperatureHumidityPressure
High95 °F (Jul 14, 2:54 pm)90% (Jul 5, 6:15 am)30.12 "Hg (Jul 5, 6:15 am)
Low70 °F (Jul 9, 3:54 am)36% (Jun 30, 4:54 pm)29.76 "Hg (Jul 12, 3:20 am)
Average82 °F70%29.95 "Hg
* Reported Jun 30 4:54 pm — Jul 15 4:54 pm, Annapolis. Weather by CustomWeather, © 2019

Note: Actual official high and low records may vary slightly from our data, if they occured in-between our weather recording intervals... More about our weather records

Advertising

Annapolis Weather History for the Previous 24 Hours

Scroll right to see more
 ConditionsComfort  
Time TempWeatherWind HumidityBarometerVisibility
4:54 pm
Mon, Jul 15
86 °FSunny.8 mph53%30.05 "Hg10 mi
3:54 pm86 °FSunny.9 mph51%30.06 "Hg10 mi
2:54 pm86 °FSunny.9 mph53%30.07 "Hg10 mi
1:54 pm85 °FSunny.9 mph53%30.08 "Hg10 mi
12:54 pm85 °FSunny.8 mph53%30.10 "Hg10 mi
11:54 am85 °FSunny.No wind50%30.11 "Hg10 mi
10:54 am84 °FSunny.5 mph51%30.11 "Hg10 mi
9:54 am82 °FSunny.8 mph55%30.11 "Hg10 mi
8:54 am82 °FSunny.5 mph58%30.11 "Hg10 mi
7:54 am80 °FSunny.3 mph62%30.09 "Hg10 mi
6:54 am77 °FSunny.7 mph66%30.09 "Hg10 mi
5:54 am78 °FSunny.6 mph60%30.07 "Hg10 mi
4:54 am78 °FClear.5 mph58%30.05 "Hg10 mi
3:54 am79 °FClear.5 mph65%30.04 "Hg10 mi
2:54 am80 °FClear.3 mph56%30.04 "Hg10 mi
1:54 am83 °FClear.5 mph57%30.04 "Hg10 mi
12:54 am83 °FClear.5 mph61%30.04 "Hg10 mi
11:54 pm
Sun, Jul 14
83 °FClear.3 mph72%30.03 "Hg10 mi
10:54 pm83 °FClear.3 mph68%30.02 "Hg10 mi
9:54 pm86 °FClear.7 mph63%30.00 "Hg10 mi
8:54 pm90 °FClear.6 mph50%29.98 "Hg10 mi
7:54 pm92 °FSunny.N/A51%29.97 "Hg10 mi
6:54 pm94 °FSunny.N/A44%29.96 "Hg10 mi
Weather by CustomWeather, © 2019

See weather overview

LIVE PARTIAL LUNAR ECLIPSE – Watch the eclipse as it happens